Theta_e
306 300 298 297 300 302 303 304 303 300 303 301 300 298 296 295 295 296 297 298 300 295 295 296 297 297 299 300 301 302 302 301 298 296 297 297 298 298 299 299 300 303 305 308 311 315 318 321 324 325 325 325 325 325 325 324 324 323 323 321 320 321 322 322 321 321 321 320 320 320 320 320 321 320 321 321 322 322 322 322 323 322 322 323 322 322
306 298 298 301 302 303 304 304 304 301 302 300 298 297 295 295 295 298 298 295 298 297 294 296 295 295 297 299 300 301 298 298 300 299 298 298 298 299 299 299 299 302 304 307 308 311 314 318 321 323 324 322 323 324 325 324 324 324 323 322 322 321 321 322 322 322 321 321 321 320 320 321 321 320 319 321 322 322 323 322 322 322 322 323 323 321
299 296 299 303 304 305 305 304 304 302 299 300 298 296 294 295 297 298 293 294 296 298 296 291 292 295 297 299 300 299 300 301 301 301 301 301 300 300 299 299 300 300 302 305 308 310 313 315 319 322 323 323 324 324 324 325 325 324 324 324 323 322 322 322 322 322 321 322 322 322 321 321 320 322 322 322 322 322 322 322 322 322 322 323 323 323
294 298 301 304 305 304 303 304 303 302 300 298 295 294 294 295 296 292 293 292 296 296 289 289 290 293 294 295 296 299 300 301 303 302 301 301 301 301 301 301 301 300 300 302 306 309 311 314 316 319 321 322 323 323 323 324 324 325 324 325 324 323 323 322 322 320 322 322 322 322 321 321 321 320 320 320 320 321 321 322 322 322 322 322 323 323
296 301 305 304 304 304 301 302 302 301 298 298 298 296 295 293 296 295 292 292 292 293 292 291 291 293 295 295 297 299 299 299 301 301 302 301 300 301 301 301 301 301 301 302 304 307 308 310 314 317 320 322 322 322 323 323 324 325 325 325 325 325 324 323 322 321 321 320 317 318 316 316 316 316 316 317 319 320 320 321 321 322 322 322 322 323
299 303 306 303 303 303 302 300 301 301 297 298 299 299 299 298 297 295 291 292 287 289 290 292 283 282 285 289 293 296 293 296 297 297 300 302 302 300 300 301 301 300 300 302 304 306 308 310 313 316 318 320 321 322 323 324 325 325 325 325 325 325 325 324 323 322 321 320 320 318 318 317 317 318 317 317 318 319 319 320 322 322 322 322 322 323
300 304 304 302 302 301 301 300 302 302 298 296 297 302 300 299 298 293 291 291 283 283 289 291 287 282 284 288 289 290 290 293 295 295 297 298 300 301 302 302 302 302 302 300 300 302 305 307 310 314 316 319 321 323 324 324 324 324 325 325 325 325 325 325 324 323 321 321 321 320 319 319 318 318 319 321 321 321 321 321 321 322 322 323 322 322
302 302 303 303 301 300 299 298 302 302 299 296 300 302 301 298 295 294 294 291 284 286 289 287 286 282 286 290 291 292 291 293 295 297 297 298 298 299 301 302 302 302 302 303 301 301 302 306 308 312 316 318 320 322 323 323 323 323 324 324 324 325 323 325 325 323 322 322 321 320 320 320 320 319 320 320 321 321 320 321 321 321 322 322 323 323
303 300 301 300 300 299 298 302 303 304 299 298 300 303 300 299 296 295 294 288 287 289 286 286 288 286 282 287 289 290 291 292 294 296 297 299 299 299 300 301 302 303 302 302 302 302 301 302 305 309 313 317 319 320 321 322 323 324 324 323 323 324 324 323 323 323 323 322 323 322 321 320 320 321 321 318 317 320 319 320 321 321 322 322 322 323
303 303 303 303 300 297 301 301 304 304 299 298 301 300 298 296 295 294 289 290 284 283 286 286 287 283 285 289 290 286 290 293 294 295 296 298 299 299 300 300 300 301 302 301 301 302 302 302 304 307 310 314 318 320 320 321 321 322 322 322 321 323 324 324 323 323 323 323 322 322 322 321 321 321 321 317 319 318 318 320 321 321 321 322 322 323
301 306 306 303 300 302 300 301 303 303 300 301 300 297 294 292 289 286 285 283 283 282 286 286 287 286 282 288 288 288 289 291 291 292 294 295 297 298 299 299 300 299 300 300 299 300 300 299 299 302 306 310 312 314 316 318 319 320 320 321 320 322 324 323 323 322 323 323 322 322 322 322 321 321 320 319 319 319 317 319 320 320 321 321 322 322
299 302 302 298 305 299 301 296 300 303 300 300 293 293 294 290 289 285 283 285 281 282 283 286 288 288 282 282 283 291 291 288 291 292 294 295 295 296 298 299 300 299 299 298 297 297 297 296 296 297 300 304 310 313 316 317 317 318 319 320 320 321 322 322 323 322 323 323 323 323 323 322 322 322 321 320 319 319 319 319 319 319 320 321 322 322
295 298 300 300 300 302 298 297 295 300 298 297 295 295 289 284 287 284 284 283 284 281 283 281 286 283 286 291 291 292 291 293 292 295 296 295 295 294 292 293 297 297 295 295 296 296 296 297 298 297 298 298 302 309 313 315 316 317 318 319 319 320 321 322 322 322 322 322 323 323 322 322 322 322 321 321 320 320 320 320 319 319 320 322 323 324
290 297 297 297 298 301 301 295 290 292 295 295 294 292 287 282 282 281 281 281 279 281 281 282 285 284 284 286 296 296 299 299 295 294 293 292 294 292 292 292 293 293 294 296 296 295 296 297 297 297 298 298 299 303 309 312 313 314 316 316 318 320 319 319 319 321 321 321 322 323 323 323 322 321 321 321 321 321 320 320 320 320 320 320 322 323
285 286 293 297 293 301 300 299 298 296 296 296 296 295 289 288 281 277 278 280 279 277 281 282 281 280 282 286 289 296 298 294 290 293 294 293 291 290 289 289 291 293 293 292 292 293 295 295 294 295 295 295 295 297 301 305 308 309 313 314 315 317 316 316 318 319 320 321 321 322 322 322 322 322 321 321 321 321 320 320 320 320 320 320 321 321
290 288 295 301 298 301 299 299 298 297 294 291 292 293 288 287 284 278 278 277 272 276 276 277 282 282 286 289 292 293 291 292 292 293 292 293 292 290 291 292 293 293 293 292 292 293 293 294 293 293 294 294 293 293 294 299 306 308 311 312 314 316 316 315 314 316 318 319 320 320 320 321 321 320 320 320 320 320 320 320 320 320 320 321 321 321
289 287 295 297 297 300 299 298 297 301 288 291 293 290 291 292 287 282 279 279 276 275 275 277 281 284 285 292 297 297 294 293 292 291 290 292 291 290 292 292 291 292 292 291 293 293 294 293 293 292 292 292 292 293 295 296 300 307 309 310 311 312 309 312 312 314 315 316 317 318 320 320 320 320 319 320 320 320 320 320 321 320 321 321 321 321
289 287 293 296 292 299 300 301 299 300 296 293 288 293 291 291 289 285 280 275 272 273 275 279 281 280 281 283 289 292 293 296 291 291 292 290 289 291 292 292 292 293 293 291 291 291 291 291 292 292 291 292 294 295 293 294 294 297 302 305 307 305 308 306 308 309 311 313 314 315 316 317 319 320 320 320 320 319 318 319 319 319 319 319 320 320
295 286 289 291 294 296 298 300 295 296 296 296 295 298 294 283 284 281 279 273 271 271 270 274 278 279 282 286 285 289 292 294 294 292 289 291 290 291 291 291 291 290 290 291 291 291 292 292 293 292 293 293 292 292 292 293 293 293 294 294 300 304 304 304 304 303 305 305 309 310 311 312 314 315 317 316 316 315 318 318 318 318 319 318 317 316
295 286 287 292 293 295 297 297 287 292 295 293 295 295 292 289 288 285 283 276 278 272 272 271 276 280 285 285 288 291 292 294 295 294 292 292 292 293 292 293 292 291 292 291 292 292 292 292 291 292 292 293 294 294 293 293 294 295 295 294 294 294 294 295 296 296 299 299 300 302 303 305 307 308 310 312 313 314 315 316 316 316 315 316 314 316
290 292 285 289 291 295 289 293 291 294 289 288 292 290 290 286 286 287 282 277 278 269 268 271 273 279 282 288 292 295 295 294 295 295 295 293 292 292 293 293 291 291 291 292 292 292 292 292 292 291 290 290 290 291 292 292 295 295 293 295 294 297 296 295 296 297 297 298 299 299 299 300 301 302 303 305 305 306 308 308 307 311 312 308 312 313
290 288 287 286 288 289 292 298 298 297 296 294 293 290 292 288 283 284 281 282 273 276 274 271 278 281 281 289 295 295 296 295 294 294 295 291 291 292 293 291 291 291 291 291 291 291 292 291 291 291 292 291 292 293 293 293 293 293 294 295 295 295 296 296 296 296 296 296 297 298 298 299 299 300 300 301 301 301 302 302 302 304 302 304 308 306
295 289 289 286 289 291 295 293 293 297 297 294 295 292 294 291 288 283 280 280 278 282 276 274 274 282 289 291 294 295 295 295 295 294 295 293 292 293 293 292 290 291 292 293 292 292 291 290 290 291 291 292 293 294 291 291 293 294 294 294 294 295 294 296 294 295 294 296 296 297 296 296 296 295 295 296 295 295 295 295 294 295 297 300 301 300
294 288 287 287 289 290 292 293 293 294 296 294 291 292 293 290 291 289 287 283 285 279 279 278 277 283 289 288 290 292 292 291 292 292 295 294 291 291 291 290 290 290 291 291 290 289 289 288 288 290 292 293 293 291 292 292 292 292 292 292 293 294 294 294 293 293 294 294 294 289 289 290 288 288 289 291 291 291 292 294 295 294 294 298 297 300
289 288 289 284 284 285 286 290 290 291 295 291 289 293 294 294 292 285 283 281 282 284 284 282 278 285 286 285 287 287 289 291 292 293 293 294 290 291 291 291 291 292 292 291 291 291 289 290 291 293 294 294 293 290 289 290 292 292 292 291 293 294 293 292 291 291 290 288 288 286 286 286 286 288 289 290 292 293 293 295 295 295 296 297 300 303
291 287 287 283 280 278 278 279 282 285 289 292 294 294 294 294 291 288 287 281 283 283 285 281 283 287 289 289 291 289 289 289 290 291 291 292 292 292 290 291 292 292 293 292 291 290 292 293 291 289 289 292 291 290 290 289 290 290 290 292 290 290 289 289 288 288 288 286 289 288 290 289 290 292 291 291 293 294 295 297 299 299 300 300 305 303
287 287 288 288 287 286 287 289 294 295 292 289 291 292 293 294 294 292 289 286 284 284 283 287 288 287 286 288 288 289 288 290 291 289 292 292 290 290 290 292 292 293 293 292 292 292 290 290 291 293 292 292 289 287 289 289 291 288 288 289 288 288 288 287 287 287 288 288 290 292 293 294 293 294 294 293 294 294 296 297 296 297 298 297 297 299
286 286 288 288 288 289 287 290 294 295 291 293 291 291 293 293 292 290 288 286 291 285 279 286 289 287 290 291 288 289 289 288 290 291 292 292 292 292 292 291 292 290 290 289 290 291 292 293 292 291 292 290 290 288 287 286 288 291 291 291 289 287 288 287 287 286 289 291 292 294 293 294 294 293 295 295 296 296 295 295 295 295 295 294 295 296
287 286 289 289 287 290 289 289 293 294 294 294 293 293 292 293 292 289 290 293 291 286 285 290 290 288 291 292 291 291 292 292 292 293 294 294 292 291 290 290 291 291 291 291 292 292 292 292 292 292 291 291 288 289 289 288 288 286 286 286 285 284 287 286 290 291 292 292 292 292 292 292 293 294 294 293 293 294 294 294 293 292 291 291 293 294
290 287 287 287 287 289 290 289 291 292 292 293 293 293 294 293 292 293 293 294 293 290 292 293 292 291 293 294 294 295 293 292 292 292 291 291 292 292 291 291 291 292 292 292 293 293 293 293 292 292 292 289 290 290 289 288 289 289 290 290 287 287 287 287 290 292 293 293 292 292 292 292 293 293 292 291 292 292 290 289 289 289 289 291 290 290
293 286 289 286 286 286 289 290 289 289 291 290 292 293 293 293 293 294 294 294 293 292 293 292 291 291 296 297 295 292 291 290 290 289 290 291 291 291 291 291 292 293 293 293 293 293 293 293 292 290 289 291 291 291 291 291 290 288 287 287 285 288 288 288 288 291 292 293 292 292 292 292 291 292 293 293 290 289 289 289 288 288 288 288 288 289
293 286 287 286 284 285 288 288 288 288 287 288 290 291 292 292 290 292 291 294 292 290 292 291 289 290 296 295 291 290 292 291 292 292 291 291 291 291 292 293 293 294 294 293 293 293 292 292 292 291 291 292 292 291 290 289 288 287 290 288 287 287 286 286 288 292 292 292 291 292 293 291 291 292 290 289 289 288 288 287 288 288 288 288 288 288
289 286 284 285 283 284 287 287 287 286 286 284 286 291 293 293 294 294 295 295 295 295 291 288 290 296 295 293 294 290 292 292 292 293 293 292 292 291 292 294 294 294 294 294 293 293 293 292 292 293 293 292 293 292 290 290 289 291 290 289 287 286 286 286 288 291 291 290 290 290 290 290 291 290 288 288 288 287 288 288 288 288 288 288 287 287
288 287 285 287 283 284 284 285 287 284 277 280 293 296 295 293 293 291 292 294 295 296 294 297 296 298 290 292 293 292 291 293 294 295 296 296 294 291 292 293 294 294 295 294 294 294 294 293 292 292 293 294 294 292 291 289 292 290 288 288 286 286 285 286 286 288 289 289 290 290 289 290 289 289 288 288 288 288 288 288 288 287 287 287 287 287
286 285 285 286 284 284 284 285 282 277 279 292 294 296 298 297 297 295 295 296 296 297 297 296 297 297 296 293 293 295 295 296 296 295 294 294 294 294 293 292 293 293 294 294 293 292 293 293 292 292 291 291 290 288 287 286 285 286 286 286 285 284 284 285 288 290 289 289 289 288 288 289 289 289 288 288 287 288 288 287 287 287 287 288 288 288
286 286 285 285 285 286 283 283 277 278 287 290 294 296 298 298 297 294 293 295 296 297 297 296 297 298 297 293 293 295 294 295 294 294 295 295 294 295 294 294 294 293 293 294 294 294 293 293 293 293 293 292 288 288 289 289 287 289 287 285 286 286 288 289 289 289 288 290 289 289 288 288 288 288 287 287 287 287 287 286 287 287 287 287 287 287
290 287 286 283 286 280 282 283 283 287 285 286 288 289 293 291 292 291 287 292 297 298 297 296 297 298 298 298 298 291 289 290 290 295 295 294 294 294 296 296 296 294 295 295 295 295 295 295 294 294 292 289 290 289 288 287 287 287 285 285 285 287 287 287 287 288 288 288 289 288 287 287 288 287 287 287 287 287 287 287 287 287 287 287 287 287
291 287 286 283 282 285 282 280 281 282 280 284 290 293 297 298 298 297 293 291 297 298 299 297 297 298 298 299 298 290 292 291 292 295 298 293 294 295 293 294 295 296 296 295 294 293 292 292 291 289 291 290 289 289 288 287 287 287 286 284 285 286 286 287 287 288 288 289 290 288 288 287 287 287 286 287 287 287 287 286 287 287 287 287 287 287
291 292 287 284 283 282 281 278 278 278 282 289 289 291 293 293 295 294 290 287 296 297 298 298 297 298 298 298 295 292 292 290 292 297 300 295 295 294 295 295 296 296 295 294 293 292 291 291 292 290 289 289 289 287 286 287 287 287 284 284 285 286 286 286 287 288 288 289 289 287 288 287 287 287 286 287 287 287 287 287 287 286 286 286 287 286
287 286 285 283 282 282 280 278 277 281 282 286 287 288 291 295 297 292 282 283 296 298 298 298 298 298 298 298 293 293 293 291 293 298 295 298 298 297 296 297 297 295 293 290 289 292 292 289 287 286 288 289 290 286 286 286 287 287 284 283 284 285 285 286 288 288 288 288 287 287 287 287 287 286 287 287 287 286 287 286 286 286 286 286 286 286
284 284 285 281 283 283 282 279 282 283 287 289 290 289 292 296 295 285 280 289 294 298 299 298 298 299 299 296 294 294 296 300 301 299 295 298 298 297 297 298 298 297 295 291 290 288 288 288 291 291 291 290 287 286 286 287 287 286 285 283 284 284 286 288 288 288 288 287 287 286 286 286 286 286 286 287 287 286 286 286 286 286 286 286 286 286
284 285 284 285 283 281 282 280 280 283 287 289 289 293 293 292 285 284 295 295 295 297 298 299 298 298 298 297 296 298 300 301 302 293 292 294 298 299 298 297 294 290 288 287 288 288 289 288 287 286 284 283 285 286 287 287 287 285 284 284 285 285 287 288 288 287 287 286 286 286 286 286 286 286 286 286 286 286 286 286 286 286 286 286 286 286
284 283 280 282 285 285 283 279 278 276 285 293 291 291 291 289 290 295 291 290 291 292 294 295 297 298 297 297 297 298 299 300 299 297 295 294 295 298 298 293 291 290 288 286 285 285 288 287 286 286 285 283 284 285 286 287 286 284 283 284 284 284 286 288 287 287 286 286 286 286 286 286 286 286 286 286 286 286 286 286 286 286 286 286 286 286
289 283 283 284 288 281 281 278 279 286 288 292 294 289 291 295 291 293 297 296 288 287 291 292 292 294 295 297 297 297 298 298 298 298 295 293 293 294 292 291 290 289 287 288 289 287 287 288 285 284 283 283 283 284 285 286 285 283 283 283 283 283 286 287 286 286 286 285 285 285 286 286 286 286 286 286 286 286 286 286 286 286 286 286 286 286
288 285 287 284 288 286 284 286 290 290 290 295 296 293 297 298 297 289 292 296 295 292 286 289 292 291 293 295 296 296 296 296 297 298 296 296 295 293 294 293 291 289 289 288 288 286 287 287 285 283 282 280 280 282 283 283 284 282 283 283 282 284 286 286 286 286 285 285 285 285 285 286 286 286 286 286 286 286 286 285 286 285 285 286 286 286
290 292 289 288 285 290 291 292 293 291 287 291 295 295 296 297 297 296 291 290 289 290 288 291 290 291 291 293 294 294 295 296 295 295 293 293 292 292 292 290 288 286 285 284 283 284 284 283 282 282 281 279 277 279 278 279 283 283 283 282 282 285 286 286 285 285 285 285 285 285 285 285 285 285 285 285 286 286 286 286 286 285 285 285 285 285
284 287 289 286 284 288 283 290 291 291 291 288 292 294 292 290 294 296 294 290 286 285 285 286 288 289 289 288 290 293 294 294 293 292 287 287 288 289 289 289 287 286 286 286 285 283 282 282 282 281 280 279 276 275 275 276 277 281 282 281 281 284 285 284 284 283 283 283 282 283 284 285 285 285 285 285 285 285 285 286 285 285 285 285 285 285
284 285 286 287 287 287 286 290 292 294 294 292 293 293 294 295 291 288 293 294 290 285 284 286 285 286 286 289 291 291 292 292 291 290 286 287 288 287 286 286 286 284 283 283 282 282 282 282 282 279 277 279 276 275 275 276 278 279 279 279 280 281 282 281 281 281 280 279 279 280 281 282 280 281 282 282 284 284 284 284 284 283 282 282 283 282
286 289 283 285 286 288 290 291 291 289 286 289 291 293 296 295 293 290 287 289 290 292 291 286 285 288 288 291 291 290 290 290 289 290 288 288 286 286 286 285 284 284 282 281 280 281 282 282 281 280 279 277 275 275 275 275 275 274 276 277 277 279 279 278 277 277 276 276 276 277 277 279 279 278 278 276 276 277 278 280 280 279 277 277 276 277
287 285 283 287 285 285 286 289 290 287 287 291 292 293 292 290 289 291 289 289 290 291 292 292 291 287 288 289 290 289 288 290 287 287 288 288 288 287 284 283 282 282 280 280 280 279 278 279 280 279 277 275 274 274 274 273 273 272 274 276 277 278 278 277 277 276 276 276 276 275 275 274 273 273 274 275 275 275 276 279 280 277 275 273 280 283
287 287 288 286 285 285 291 293 294 293 293 294 291 291 294 294 293 294 294 294 294 293 293 293 292 292 289 288 288 288 288 290 288 286 287 286 287 285 285 283 282 282 281 280 278 277 278 278 278 277 275 274 273 273 272 272 271 271 272 274 276 278 278 278 277 276 275 275 274 275 275 274 273 273 273 273 274 275 274 275 277 282 282 282 281 283
Wind_Speed
4 12 14 18 19 17 12 11 9 3 9 7 8 8 9 7 4 3 3 4 7 2 10 12 13 13 15 12 11 8 5 6 7 9 9 8 9 9 9 9 10 10 15 11 10 9 11 13 12 12 11 11 11 11 12 12 13 14 14 12 15 12 11 10 10 10 10 11 9 8 11 12 9 9 9 9 9 9 10 10 10 9 9 9 10 10
4 12 17 20 15 14 13 9 8 4 6 9 8 7 7 6 8 5 4 1 4 6 6 7 7 12 14 11 10 8 5 10 11 11 11 12 11 9 10 11 11 13 6 4 6 7 6 8 10 10 10 10 12 13 13 15 16 14 12 14 14 10 11 12 13 12 11 11 12 12 12 11 10 9 10 11 10 11 10 10 10 10 9 10 10 10
11 19 22 16 7 7 8 8 10 9 5 7 9 8 5 8 2 4 2 1 4 5 9 1 6 12 12 13 12 10 13 12 9 11 14 13 14 12 11 11 12 8 10 6 9 8 9 11 12 11 11 12 15 15 15 16 13 12 13 14 12 12 12 12 12 11 13 11 10 11 9 11 8 8 9 9 9 8 9 10 10 10 10 11 11 11
17 20 18 11 9 12 7 10 10 9 5 8 7 7 13 4 6 6 4 0 3 7 1 1 4 10 7 8 12 11 10 11 12 12 13 12 14 14 14 13 13 13 12 13 13 13 12 11 11 9 10 13 12 12 12 13 15 13 14 14 14 13 13 11 12 12 11 10 8 8 6 6 8 7 7 7 6 7 9 11 10 11 11 12 12 12
24 17 15 13 10 12 12 11 14 12 11 7 10 9 6 5 8 6 5 1 1 2 1 1 6 10 9 11 11 9 10 12 13 9 11 11 10 10 9 10 12 15 14 14 12 10 9 9 11 13 14 11 11 13 14 14 14 12 17 16 15 13 13 12 11 12 8 6 5 5 2 1 4 2 4 5 8 9 10 10 11 14 12 11 11 11
18 6 16 16 16 15 13 12 16 14 12 9 9 9 6 4 8 3 2 5 1 4 2 2 3 7 4 7 12 8 5 9 6 9 15 14 11 8 12 14 10 10 10 13 15 14 13 13 12 11 11 11 12 13 14 14 15 14 13 13 12 10 10 11 11 11 9 9 10 8 9 9 8 10 9 12 14 12 12 14 10 8 10 11 11 11
11 11 19 17 15 17 18 15 16 13 12 11 10 11 7 6 6 6 6 5 2 4 3 1 9 9 2 4 5 5 3 10 8 8 12 9 11 11 13 12 12 13 13 9 8 8 8 10 10 11 12 14 14 15 12 10 11 12 10 10 11 11 10 10 9 10 10 10 10 13 13 12 12 12 12 10 8 9 9 7 9 10 9 10 12 12
9 12 15 15 17 17 14 15 15 19 13 11 4 13 9 6 7 7 8 6 1 1 3 2 2 5 11 9 5 4 5 9 10 13 11 11 11 12 12 12 12 14 12 12 13 13 11 11 13 14 15 13 15 14 9 10 9 11 12 11 12 11 10 9 9 10 12 12 11 11 12 11 12 13 14 9 9 7 7 9 11 9 9 9 11 11
23 20 22 21 19 16 18 18 14 16 11 3 5 9 11 8 5 6 6 4 1 1 6 3 1 1 7 9 4 1 7 9 13 12 12 12 11 12 12 12 12 13 13 12 12 12 12 12 12 11 11 13 12 9 10 11 11 11 12 11 10 11 10 9 10 11 12 12 12 12 11 12 12 12 11 6 6 8 7 9 9 9 10 9 9 11
10 20 24 25 20 17 13 9 13 15 13 1 10 9 6 6 5 4 5 5 1 2 10 7 4 3 9 8 5 1 3 16 15 11 14 13 13 11 11 11 11 9 9 8 11 11 11 11 11 11 10 7 10 9 8 8 7 8 8 9 10 12 11 10 11 12 12 13 11 11 12 15 14 10 9 6 8 7 6 10 10 8 9 9 9 10
3 8 11 12 14 11 9 9 15 15 4 8 12 9 6 5 3 3 5 4 2 5 11 8 7 4 6 7 8 6 9 8 6 6 6 7 9 11 10 9 8 8 8 9 9 9 9 6 5 3 6 8 5 5 6 7 7 7 9 10 12 13 11 10 11 12 14 13 12 13 14 15 15 13 10 9 10 8 6 10 10 8 8 7 10 9
5 8 9 3 11 4 10 4 1 7 11 13 4 7 9 2 4 4 2 3 3 9 1 8 9 7 8 6 5 9 6 3 4 5 8 9 8 9 8 8 9 8 8 8 6 7 7 4 4 3 7 8 9 8 9 9 8 8 9 9 12 12 11 10 11 12 13 12 14 14 14 15 16 13 10 12 14 11 11 10 10 6 6 9 8 9
7 14 6 7 3 22 10 14 4 6 7 8 9 12 12 4 4 6 2 7 12 7 0 0 6 2 18 11 11 9 10 8 8 9 10 9 10 9 6 7 7 6 5 5 6 6 5 7 8 7 9 6 6 9 10 10 9 9 9 11 12 14 11 11 11 13 13 12 13 14 14 15 13 11 12 12 12 10 10 9 9 8 9 8 9 10
3 5 7 7 5 7 16 17 8 8 11 11 14 13 11 7 8 10 5 2 4 3 3 3 1 8 2 4 16 21 23 17 9 10 9 6 8 7 3 1 1 2 5 6 6 6 7 8 7 8 7 7 7 7 9 8 8 8 8 9 11 13 10 9 9 11 11 13 13 12 13 13 11 11 11 11 11 10 9 9 10 10 10 9 11 9
12 8 10 16 10 11 15 14 19 16 20 17 6 14 10 10 6 10 6 12 8 5 2 3 4 9 6 5 3 13 10 5 4 6 7 7 6 5 4 4 3 1 2 2 4 5 7 7 6 6 6 6 6 6 6 5 6 5 7 8 10 11 8 9 11 10 12 12 12 11 11 10 8 10 10 10 10 10 10 8 8 9 8 9 9 9
15 1 7 14 3 20 19 9 7 9 6 4 4 5 5 9 5 5 5 4 3 3 1 1 8 3 5 4 11 9 6 8 7 9 6 7 6 4 3 4 4 4 4 4 4 5 5 5 4 4 3 4 4 5 5 6 6 7 8 8 10 12 9 9 8 9 10 10 8 9 10 11 10 9 9 9 9 8 7 7 9 9 9 8 8 8
3 6 6 4 6 15 12 7 5 16 14 8 8 15 7 5 9 5 3 1 4 3 7 3 7 7 7 9 15 14 8 8 6 7 5 8 6 4 6 6 6 5 5 5 6 6 6 4 4 4 4 3 4 4 5 7 7 9 9 9 10 8 5 6 7 8 7 7 8 9 10 9 9 9 10 10 9 9 8 9 9 8 8 8 7 7
14 5 6 9 8 11 8 14 9 10 3 7 8 8 4 3 5 4 4 1 1 5 5 4 12 4 1 10 1 8 12 17 4 6 6 5 4 7 8 6 7 8 7 5 4 4 4 4 4 4 4 4 5 6 5 6 5 5 6 6 7 5 7 6 6 7 6 7 7 7 7 7 8 8 9 8 8 6 6 7 7 7 7 8 8 8
6 5 1 2 4 1 3 10 4 2 2 13 13 10 13 4 5 1 3 3 3 4 4 4 3 5 9 9 1 2 12 16 13 6 3 6 6 7 6 8 7 5 4 5 5 4 4 5 5 4 5 5 4 4 4 2 2 2 3 4 5 7 7 7 6 5 4 4 4 4 4 5 5 5 6 5 5 4 6 8 7 7 9 7 6 7
1 6 3 1 4 2 6 10 12 7 2 4 6 9 1 3 6 10 8 3 5 5 1 7 2 9 9 7 9 9 9 14 14 10 8 9 9 8 8 7 7 5 5 5 5 5 4 4 4 5 5 4 5 5 4 3 1 3 4 4 4 3 3 2 3 3 5 4 3 3 2 2 2 3 4 4 4 5 6 6 5 6 6 7 6 6
1 2 8 4 1 4 8 7 13 14 11 4 9 8 3 1 1 4 1 5 5 5 5 2 6 8 7 8 13 18 14 12 13 14 12 8 7 8 8 8 6 6 6 5 5 5 4 4 4 3 3 3 3 2 2 2 4 5 4 5 4 5 3 3 2 1 2 0 1 1 3 3 3 3 2 3 3 4 5 4 4 5 5 4 6 5
0 1 10 5 4 8 8 11 14 18 17 15 14 14 13 11 6 9 8 1 2 1 4 3 12 6 3 5 13 14 13 11 10 10 10 6 8 10 10 7 7 6 6 5 5 5 5 5 4 3 2 1 1 2 3 4 3 3 4 2 1 1 2 2 1 1 1 1 1 1 1 1 1 1 1 2 2 4 4 4 4 4 3 4 5 4
1 1 7 11 12 15 11 1 4 5 7 3 8 10 11 7 6 7 8 7 2 5 4 3 2 12 7 7 10 9 7 10 10 8 10 8 10 11 10 8 7 6 7 8 7 6 5 5 4 3 4 4 5 5 4 4 4 4 3 2 2 2 3 1 2 2 2 1 1 1 0 0 1 1 1 1 2 3 3 3 3 3 3 4 4 4
5 1 7 4 3 5 4 3 5 2 6 4 1 3 8 10 11 10 9 6 9 2 3 3 5 6 1 2 7 7 6 4 2 5 11 9 5 7 6 6 8 6 7 5 4 3 3 3 2 2 4 5 5 5 5 4 4 4 4 4 3 4 5 4 4 3 2 1 1 0 0 0 1 1 2 2 2 3 3 3 3 3 2 3 3 4
3 2 6 7 4 2 2 2 1 5 1 5 4 6 11 11 10 1 6 3 5 11 8 8 12 13 4 1 3 3 4 5 7 8 7 8 5 7 9 7 6 7 6 6 6 5 3 2 4 6 6 6 6 5 4 4 5 4 5 4 5 5 4 4 3 2 2 2 2 1 1 1 2 2 3 2 2 3 2 2 3 3 3 3 4 4
4 1 6 11 12 10 12 15 14 9 12 6 7 13 13 18 14 9 11 3 8 6 11 8 13 4 1 1 1 1 0 4 4 4 5 5 7 9 7 7 8 8 9 8 7 4 6 8 6 5 6 6 5 5 4 4 4 5 4 6 5 4 4 4 2 3 3 3 3 1 0 0 1 1 1 1 2 2 2 2 2 3 3 3 5 5
2 1 5 6 10 14 14 14 15 18 12 15 16 18 18 18 20 15 8 9 15 8 11 15 18 5 3 4 4 3 2 5 5 4 8 8 8 6 6 7 10 10 10 10 9 8 4 3 7 8 7 6 5 5 5 5 5 5 5 5 4 4 4 4 4 4 4 3 3 2 0 0 1 2 2 3 3 3 3 2 1 2 2 2 3 3
5 2 11 13 13 6 9 6 6 13 16 15 16 19 17 15 12 13 12 17 17 5 6 7 14 14 18 15 6 5 5 5 4 6 7 6 5 8 9 8 7 5 5 5 5 6 8 9 7 7 7 6 6 5 5 4 5 6 6 6 5 5 4 4 4 4 4 4 2 1 1 1 1 2 2 3 3 4 3 2 3 3 3 3 3 3
6 8 6 8 12 8 3 8 5 12 19 23 24 21 21 17 16 18 19 21 9 9 18 25 21 18 20 12 8 11 9 9 9 10 10 10 5 3 3 5 8 11 9 9 10 8 8 9 8 8 7 8 5 6 6 5 5 4 4 4 3 4 5 5 5 4 4 3 3 2 2 3 2 2 3 3 2 3 3 3 3 3 3 3 3 3
4 7 4 7 7 10 8 1 7 10 11 12 17 20 22 23 25 25 25 26 20 15 21 24 13 17 21 16 15 16 10 7 5 3 0 1 4 7 8 10 11 13 13 13 13 11 9 9 8 8 8 6 6 7 6 6 6 6 7 6 5 5 3 5 5 5 4 4 3 2 2 2 2 2 1 2 2 3 2 2 3 3 3 3 2 3
7 3 10 5 7 11 13 9 4 6 7 17 17 16 17 20 22 24 23 22 17 15 16 17 17 20 20 14 8 3 5 5 2 2 4 6 6 6 8 10 13 15 15 12 9 9 9 9 8 7 6 7 7 9 8 8 7 6 5 5 5 5 5 4 5 4 5 4 3 2 2 2 2 1 2 3 2 3 3 3 2 2 2 2 3 3
7 2 2 5 7 10 10 13 13 8 6 9 16 18 17 17 18 17 18 19 17 21 25 24 19 15 23 7 5 6 7 8 9 9 7 8 9 9 11 14 17 17 14 12 11 9 8 9 10 10 10 10 9 9 8 7 7 6 7 6 5 4 5 4 5 5 4 3 3 3 3 3 2 2 3 2 3 2 2 2 1 2 2 2 3 2
4 5 5 6 10 12 7 14 17 12 8 10 14 18 20 20 21 22 23 22 21 17 17 16 19 25 11 10 9 6 10 11 12 12 12 11 10 12 15 17 17 13 12 13 12 12 12 13 13 13 11 9 10 10 10 8 7 8 7 6 4 5 5 5 4 4 4 3 3 3 3 4 3 3 2 2 2 1 1 0 1 2 2 2 2 2
2 2 4 4 5 3 6 8 7 8 14 12 8 18 22 26 26 24 22 24 23 18 17 20 21 15 4 5 7 11 13 15 16 14 13 15 14 13 13 13 11 12 13 13 13 14 14 11 9 10 11 12 12 11 8 9 9 7 5 6 5 6 6 6 4 5 4 3 3 3 3 4 3 3 2 1 1 0 0 1 1 1 1 1 2 3
6 1 1 1 3 5 5 8 7 15 13 2 1 3 12 13 14 21 22 23 21 19 19 20 20 23 13 5 6 8 11 11 9 11 13 12 10 11 15 15 15 14 14 14 12 12 12 12 11 10 8 9 9 6 5 5 4 6 6 6 7 5 7 5 6 4 4 4 3 2 2 2 2 2 1 1 1 0 1 2 2 2 2 1 2 2
7 6 3 1 1 2 5 9 7 4 2 2 5 9 11 13 14 10 16 18 17 19 22 27 29 23 8 8 10 9 5 7 7 12 15 15 14 14 14 15 16 14 14 14 15 15 15 14 15 14 14 9 6 6 7 8 6 7 6 3 7 6 5 5 5 4 3 3 3 3 2 3 2 2 1 1 0 1 1 1 1 2 2 2 2 2
6 5 4 4 3 4 2 7 8 2 3 1 0 5 11 15 15 17 18 25 29 22 18 18 21 20 18 17 12 3 1 3 7 14 11 11 12 12 12 13 13 14 17 17 16 18 18 17 15 14 9 8 9 9 8 7 7 8 8 7 5 6 6 5 5 5 5 4 3 2 2 2 2 2 2 1 1 0 1 1 2 2 1 2 3 3
8 7 3 7 3 5 1 3 2 4 10 8 16 6 14 18 18 17 15 17 9 12 16 20 26 26 24 23 15 4 1 4 13 19 13 10 9 11 10 11 13 14 15 15 13 11 8 8 7 4 9 11 9 9 7 8 9 9 9 8 6 7 6 6 6 5 5 4 4 1 3 3 3 2 2 2 1 0 1 1 1 2 1 2 3 3
10 12 8 9 5 2 1 2 2 3 6 2 2 5 6 4 7 6 5 16 16 15 18 21 25 26 22 19 10 8 6 11 19 23 10 13 12 12 14 17 19 18 13 11 12 11 10 11 12 11 8 10 12 8 8 9 10 9 9 9 8 7 8 7 7 6 6 5 4 2 3 3 3 3 3 3 2 1 2 2 2 1 2 2 2 3
9 5 5 9 10 8 5 5 7 3 7 3 2 4 1 12 12 11 9 11 26 16 17 20 26 27 20 13 7 11 14 18 23 20 10 16 17 18 18 21 19 16 13 8 6 9 9 7 8 6 9 13 13 10 10 10 9 8 10 10 9 8 8 8 7 6 5 5 5 5 4 3 4 3 4 4 4 4 3 2 3 3 3 3 3 3
7 4 9 12 11 10 10 5 3 8 10 11 9 2 1 3 12 11 11 20 2 13 18 17 20 20 16 13 12 15 19 23 25 12 12 13 14 14 17 18 18 16 16 11 11 9 9 12 15 18 19 12 10 10 9 10 10 9 10 11 9 9 8 7 7 6 6 5 6 5 4 3 4 4 3 4 5 5 4 4 4 3 4 4 3 4
6 6 4 9 11 9 6 8 9 10 9 8 7 11 7 6 8 13 17 3 7 10 14 18 20 18 14 15 14 17 20 21 25 4 5 8 15 18 17 17 11 4 2 5 9 10 9 9 7 5 4 5 10 10 10 11 11 9 10 10 9 7 6 7 7 7 7 7 6 6 5 5 4 4 5 5 5 6 6 4 4 4 4 4 4 5
9 8 6 9 6 4 5 6 2 9 4 15 14 10 8 10 15 8 5 2 2 6 7 8 14 12 11 13 16 19 21 20 17 12 13 11 11 13 11 8 9 11 9 6 5 5 9 10 9 9 9 8 8 9 9 11 11 10 9 10 9 6 6 7 8 7 7 7 7 6 6 5 6 5 5 6 7 7 6 5 5 4 4 5 5 5
8 8 5 7 7 6 8 10 10 14 1 7 16 10 10 15 1 2 7 9 1 3 7 7 6 8 10 14 15 17 19 19 17 16 10 8 10 12 6 6 7 7 6 7 10 13 11 9 7 8 6 6 6 8 8 12 12 10 10 9 7 6 7 8 8 8 8 7 7 7 6 6 6 6 6 7 7 7 7 5 5 5 4 5 5 5
7 7 7 9 7 9 7 9 12 6 6 12 13 4 14 21 15 4 4 7 7 7 4 4 8 8 10 12 13 14 15 16 19 19 13 16 14 13 13 12 11 11 12 12 11 11 11 14 15 11 8 5 5 6 7 6 12 11 12 9 8 9 9 9 9 8 8 8 7 7 6 6 5 5 5 5 6 7 6 5 5 5 4 5 5 5
10 16 6 4 5 5 8 10 11 9 5 7 8 7 8 11 15 12 9 8 6 5 6 7 7 8 10 11 12 12 14 16 15 16 12 12 10 11 10 7 3 4 4 4 4 8 7 7 8 11 11 6 4 6 5 6 9 14 10 9 8 8 9 10 10 10 9 8 7 7 7 8 7 6 6 6 5 5 4 5 5 5 5 5 5 5
4 5 7 7 2 8 9 7 16 15 12 5 8 9 9 6 8 12 12 10 6 4 6 7 7 7 8 6 9 13 15 13 12 10 5 6 6 7 9 11 8 8 11 13 11 11 10 11 12 13 13 12 5 5 5 6 4 6 10 10 8 8 9 10 10 10 9 9 8 7 7 8 7 7 6 6 6 5 5 4 4 5 5 4 5 5
6 3 6 9 7 13 9 11 18 20 20 10 11 12 15 13 9 6 10 10 8 5 4 5 4 5 3 5 11 11 16 12 8 10 6 8 10 9 8 9 10 7 5 6 9 10 9 12 14 16 14 12 9 7 7 7 7 8 9 9 8 8 10 10 10 10 10 9 7 7 7 7 8 8 6 5 6 6 5 4 4 4 4 4 3 5
5 8 6 4 9 9 11 15 13 10 6 9 14 15 13 6 5 6 5 6 8 11 12 7 5 6 6 11 9 9 10 11 8 9 9 8 7 8 11 10 8 7 7 11 11 11 14 13 14 14 14 12 9 8 8 8 8 8 9 9 9 10 12 11 9 9 9 8 7 7 6 6 6 6 7 7 6 5 5 5 5 5 4 3 2 2
4 8 2 7 12 11 12 15 9 11 14 14 15 14 11 7 5 7 6 7 9 11 13 13 13 9 9 9 8 7 9 9 6 6 9 10 11 10 6 7 8 9 8 6 7 6 6 7 12 15 14 11 9 8 9 8 7 7 7 8 9 10 12 12 11 10 9 8 7 7 7 6 6 5 6 7 7 7 7 8 8 6 6 5 8 10
12 8 9 12 11 13 16 21 16 16 20 19 9 9 15 14 11 13 14 14 14 15 14 12 11 10 11 12 8 8 9 10 8 7 7 7 9 8 9 11 12 11 11 11 11 9 10 11 11 11 11 10 9 9 9 8 7 7 7 7 8 9 10 11 11 9 8 7 7 7 7 6 6 6 7 7 7 7 8 8 8 12 12 9 9 11
Wind_Direction
135 179 191 203 205 197 188 193 184 159 154 160 185 196 215 198 261 279 261 231 192 131 219 214 225 236 246 244 256 262 276 278 266 258 248 245 240 236 235 233 232 230 230 225 221 214 207 206 203 201 196 199 200 201 200 199 202 201 198 192 204 201 192 188 189 192 191 196 200 206 206 212 206 209 208 215 215 216 219 217 215 211 213 209 209 211
163 200 214 213 199 182 185 176 180 160 162 171 191 197 220 188 218 216 220 272 212 175 258 230 241 251 255 261 260 272 276 256 247 248 245 244 241 238 234 236 234 234 255 254 238 229 219 213 207 198 196 193 194 206 199 202 204 201 197 200 205 193 197 197 194 192 196 198 197 195 206 205 204 202 204 214 212 214 216 216 216 216 214 211 211 210
195 212 214 204 169 156 160 174 181 189 182 192 193 200 209 230 245 295 262 265 221 174 254 122 218 251 252 257 256 245 250 253 239 228 235 232 237 238 234 235 241 247 250 236 234 226 213 210 206 198 198 199 202 199 200 206 202 198 200 207 202 199 197 202 198 193 202 200 201 198 203 199 210 216 214 217 214 213 217 218 218 218 215 213 216 210
197 225 212 166 162 154 167 171 179 197 188 192 190 172 218 155 169 253 272 14 202 170 238 183 280 271 264 252 251 242 239 248 246 239 239 226 232 230 229 225 228 234 236 236 227 222 216 209 206 201 203 205 202 201 204 202 202 201 204 205 202 202 200 200 202 204 205 200 201 209 206 208 204 206 213 218 219 214 218 225 217 220 216 214 216 212
201 205 166 165 162 163 174 180 182 192 213 210 196 202 192 180 212 168 220 137 299 307 63 354 312 286 247 263 270 248 231 245 250 255 255 248 240 242 247 243 229 227 223 230 234 230 218 210 209 205 208 201 200 205 204 202 201 202 205 206 201 200 200 202 199 201 193 181 188 189 170 162 224 273 193 208 227 217 218 223 217 221 213 217 218 215
207 101 149 174 171 174 177 189 196 190 209 209 221 199 188 170 193 194 134 118 39 295 307 116 328 279 283 250 252 282 337 271 259 247 251 250 244 239 243 240 239 243 236 225 224 218 212 209 212 212 211 203 207 209 211 206 204 203 207 204 200 201 200 203 200 192 185 190 188 179 193 203 204 218 208 211 215 210 213 218 224 227 216 217 219 217
190 163 170 171 170 182 189 197 196 184 201 202 214 185 187 200 162 148 157 108 171 198 292 15 194 274 307 265 247 260 244 263 278 253 259 256 247 237 236 234 232 232 237 241 246 241 226 221 213 213 208 207 208 215 208 204 208 209 208 202 201 202 202 199 195 185 186 194 198 199 203 207 208 217 226 223 221 218 223 222 225 222 218 218 219 222
144 166 159 173 178 182 193 204 193 186 187 212 138 166 187 160 153 171 154 160 190 245 298 53 139 235 294 266 222 251 292 281 278 271 255 240 240 237 236 229 226 227 226 226 228 226 220 216 208 210 211 209 213 214 200 202 201 202 206 200 202 204 203 196 188 185 191 198 200 203 210 213 218 219 230 211 222 218 212 214 224 221 222 217 219 223
176 172 172 175 178 187 200 199 173 180 186 204 124 154 175 158 157 146 128 124 131 75 275 257 268 234 247 266 299 246 294 283 269 261 268 259 240 236 236 233 228 226 225 218 223 225 220 217 216 218 215 215 216 210 201 202 200 202 202 200 198 203 202 197 187 189 196 201 200 203 208 217 225 226 234 215 217 216 210 222 224 221 225 222 222 223
181 180 177 174 176 194 191 164 158 174 186 191 113 83 67 56 62 113 109 101 346 82 245 193 184 216 275 259 254 355 252 265 261 258 250 250 252 247 240 237 230 231 234 227 226 229 226 222 219 216 218 212 214 212 208 207 202 202 197 198 197 206 202 197 192 193 198 201 200 205 211 218 225 222 231 208 225 220 208 227 228 223 224 222 224 225
128 176 161 170 191 189 150 154 166 174 136 128 102 102 79 54 62 26 69 96 63 252 242 175 199 161 293 248 207 194 221 218 256 272 272 262 261 260 253 246 237 228 227 229 226 230 232 237 235 218 215 220 222 214 204 207 202 197 194 198 202 208 203 197 197 193 201 200 202 210 212 217 225 221 216 219 232 225 216 229 231 223 225 222 226 223
118 119 161 234 177 92 119 97 61 129 137 122 133 127 106 32 13 29 354 46 181 255 199 181 169 172 219 286 261 232 234 184 190 241 270 284 267 253 249 243 238 229 224 223 220 236 240 260 249 206 217 216 214 205 205 207 201 199 200 197 206 211 206 199 198 197 205 201 207 213 215 218 224 219 214 220 229 222 225 230 235 227 227 231 228 227
152 173 161 172 183 147 155 143 168 150 149 136 133 145 154 181 150 221 113 203 213 218 263 149 148 39 239 249 275 261 255 244 219 226 247 259 280 274 256 244 239 235 227 219 216 223 228 218 213 207 223 220 218 210 210 209 202 203 201 200 205 214 206 205 199 203 205 204 210 212 217 223 226 223 222 226 232 228 225 230 232 226 230 232 232 231
217 187 186 162 132 185 156 162 153 159 193 163 168 168 161 152 185 202 185 355 329 291 274 146 80 257 294 273 237 251 252 244 217 231 233 248 259 256 264 291 299 244 218 216 211 212 213 212 212 209 211 211 215 218 215 210 204 203 204 204 209 220 205 206 202 206 207 211 213 213 218 223 223 226 225 229 233 232 225 225 230 228 231 233 235 238
151 201 208 161 198 163 181 187 176 176 177 189 164 176 180 168 172 187 171 197 206 206 210 264 112 236 131 242 246 252 273 314 263 229 228 239 245 256 287 301 296 282 243 220 213 206 208 215 208 207 208 211 213 215 216 211 211 201 209 203 213 223 211 202 207 205 212 215 216 218 221 225 223 226 225 230 231 232 228 226 232 236 235 235 240 238
181 142 184 187 171 170 181 175 146 128 142 202 162 81 145 200 144 156 194 148 143 150 109 214 212 188 180 277 291 249 261 281 263 251 236 252 252 261 272 251 244 248 252 253 246 251 252 243 240 237 228 218 218 216 206 202 196 197 207 204 212 216 210 204 204 210 212 219 217 219 220 221 220 223 226 233 231 237 234 235 230 237 236 236 239 238
167 225 176 169 167 174 171 146 161 153 179 185 147 199 194 112 104 110 63 112 103 48 249 168 294 283 300 301 274 286 278 250 240 262 248 240 236 210 217 226 233 240 249 252 236 237 248 261 264 247 239 233 220 208 202 206 199 199 198 202 212 216 209 207 209 211 209 214 214 221 221 223 222 223 227 232 235 232 228 232 237 238 240 243 241 245
167 148 167 173 166 184 167 158 169 181 117 115 185 189 88 88 112 124 172 13 70 181 259 157 220 278 58 268 269 258 269 270 201 237 247 252 218 204 225 235 227 221 228 245 254 255 247 243 244 246 237 225 212 206 206 213 209 206 202 201 203 201 205 213 204 208 208 213 220 224 226 229 228 230 233 235 240 237 235 238 238 240 245 238 235 232
125 91 273 313 151 87 77 125 122 360 317 170 181 167 152 217 216 280 119 201 160 221 255 278 263 260 208 231 343 216 237 254 267 236 226 249 233 221 231 244 245 265 280 257 244 242 239 231 231 228 223 231 233 240 230 236 186 182 194 198 190 201 205 204 204 205 219 221 227 227 230 231 238 239 244 244 241 233 234 239 233 233 238 241 235 234
187 120 136 338 127 197 147 153 188 178 354 29 80 167 183 114 209 157 200 165 126 241 250 288 66 241 194 211 192 243 216 232 245 256 229 218 205 205 218 227 230 235 230 234 236 232 231 237 229 221 220 229 231 232 233 228 175 186 195 174 196 207 198 195 201 195 208 217 216 248 271 271 261 265 250 248 239 240 239 240 238 241 245 240 238 236
243 94 157 162 337 135 182 199 185 176 160 146 163 179 200 79 263 112 38 137 167 170 192 245 292 261 250 201 188 219 221 218 219 232 235 211 207 209 212 212 217 218 220 225 220 225 232 235 248 261 266 270 293 277 258 209 200 208 190 206 208 200 217 217 213 169 225 155 209 205 236 243 248 253 246 257 244 242 251 252 248 250 241 250 245 233
96 306 167 140 155 200 193 200 194 186 176 177 177 191 176 145 124 159 227 61 99 104 232 182 257 261 265 187 198 213 220 219 225 224 238 203 202 211 217 218 206 204 221 214 219 219 226 241 265 279 298 295 277 257 238 241 242 243 225 225 224 216 238 227 264 205 242 222 213 246 250 258 270 262 301 261 254 246 246 242 243 247 278 248 255 236
118 122 129 178 188 188 192 148 9 192 192 191 174 190 174 164 142 160 194 222 158 231 109 164 274 269 226 178 204 216 215 216 219 202 228 219 205 210 215 211 211 202 197 204 210 216 223 224 226 224 223 221 216 228 234 245 226 232 245 248 242 218 242 184 204 190 183 195 211 229 174 205 322 4 345 315 292 281 276 276 278 285 259 265 267 267
48 97 155 175 50 360 15 21 36 57 114 137 109 131 161 184 186 193 198 179 182 156 211 237 250 253 275 217 227 219 227 241 218 187 216 223 208 218 215 208 205 208 231 240 239 245 239 252 267 260 243 244 245 238 232 228 231 233 231 225 214 221 227 219 209 200 188 179 155 97 94 54 23 34 22 1 342 327 320 309 300 297 274 263 271 279
186 247 175 150 138 97 26 348 19 346 182 200 165 178 186 189 190 140 95 75 181 212 178 181 235 253 263 311 273 255 239 211 209 224 215 214 207 210 208 208 206 206 214 222 222 223 230 239 225 224 223 227 233 236 229 216 213 208 220 208 210 222 215 208 195 170 161 146 133 44 53 29 32 34 17 10 359 335 316 299 287 282 284 296 301 280
228 207 182 179 171 171 184 189 189 177 190 199 200 186 192 187 180 147 202 132 218 213 176 200 245 242 2 335 302 346 214 253 253 242 247 228 205 201 204 204 205 201 210 210 213 199 208 212 222 237 241 240 234 221 214 215 213 213 217 219 210 208 213 213 159 171 147 134 135 109 84 78 44 17 316 288 297 293 298 314 342 347 333 329 307 295
156 246 275 265 203 194 198 198 197 177 169 191 194 189 194 198 190 192 182 194 214 204 191 216 232 226 294 272 248 263 225 219 223 195 205 221 232 224 215 203 199 199 201 203 202 206 216 248 240 230 234 232 232 222 215 202 207 214 216 236 230 214 204 192 157 166 139 138 136 148 113 3 327 299 296 280 266 257 261 282 302 316 303 312 292 286
104 192 221 238 261 301 7 321 103 156 175 191 189 202 199 193 185 190 195 214 209 136 264 253 244 244 239 231 228 252 259 251 246 218 218 233 223 200 203 209 214 225 232 225 220 207 204 216 224 231 236 236 235 227 231 223 209 200 197 213 214 202 197 176 154 146 151 149 144 146 190 214 242 238 248 260 260 256 239 230 244 243 243 252 279 288
147 199 182 189 247 268 357 327 200 179 192 188 192 191 191 181 185 197 215 227 183 177 222 230 221 231 246 233 201 221 209 206 207 214 209 210 209 192 192 203 211 214 214 215 219 209 210 217 220 226 232 230 223 220 222 221 228 233 243 241 229 186 198 172 153 162 157 154 161 179 189 214 221 224 244 254 277 284 283 300 301 302 292 288 288 290
132 229 172 174 236 254 257 2 316 185 200 222 211 199 189 186 194 199 209 217 202 208 225 242 237 234 243 233 211 216 203 196 214 209 76 162 222 213 204 209 209 214 212 211 213 210 211 217 219 223 225 226 214 217 218 218 218 210 205 218 214 200 186 141 164 159 167 168 177 177 195 197 217 241 336 327 289 284 304 299 293 301 304 297 288 292
189 230 140 142 207 238 244 254 258 290 230 207 212 210 201 197 199 203 210 219 216 231 245 252 251 252 251 236 223 169 182 228 316 289 225 219 222 216 210 214 218 218 215 214 212 213 212 217 225 228 227 226 216 215 209 209 208 204 210 215 196 194 168 161 146 167 162 173 173 176 191 211 198 108 290 277 282 294 298 288 291 292 303 314 332 335
187 268 96 141 192 238 214 219 239 260 273 242 214 205 197 194 206 211 218 216 203 210 221 233 242 249 257 225 140 167 192 203 216 224 227 230 219 210 209 216 219 218 212 211 212 211 212 215 221 220 220 220 219 215 210 209 208 186 203 199 194 177 143 135 143 158 163 159 178 181 201 198 177 214 231 246 262 259 260 279 312 334 331 335 348 335
182 140 165 171 188 237 197 195 212 219 262 262 233 204 196 204 205 208 216 217 216 206 220 226 236 232 238 107 182 198 188 205 214 217 221 230 223 208 212 219 221 219 215 213 209 210 213 212 211 211 215 214 216 213 215 195 173 195 194 178 177 119 133 125 144 140 159 164 172 206 203 185 190 215 219 238 240 242 256 271 355 354 3 350 315 343
355 205 172 180 203 227 155 172 183 199 223 225 195 208 203 201 201 207 213 217 217 202 218 220 233 244 85 211 178 198 199 205 208 216 208 208 215 217 225 230 227 219 219 218 213 209 214 211 213 215 211 207 211 210 201 187 184 185 160 139 131 124 126 131 134 144 153 161 188 207 183 189 190 202 223 239 242 244 301 12 351 319 311 345 359 14
166 121 237 285 209 234 132 139 185 224 229 226 22 217 223 236 229 222 224 222 219 215 229 243 247 248 218 228 191 215 213 222 217 215 223 225 216 212 213 219 222 219 220 219 216 216 216 211 210 215 216 223 215 205 167 177 152 130 121 132 109 113 123 137 134 140 153 179 192 193 175 163 177 203 232 222 224 156 10 4 348 353 350 18 12 7
172 176 135 217 291 306 164 170 219 231 183 6 140 163 198 218 229 234 251 251 239 223 219 229 235 241 224 229 216 226 225 241 245 233 223 215 205 211 213 218 220 215 218 219 214 214 209 206 205 204 209 203 169 185 178 166 155 136 135 115 126 128 126 130 129 144 135 152 154 185 186 161 175 188 206 184 182 61 15 348 347 333 344 28 10 10
175 136 158 241 181 239 251 211 227 59 40 301 20 204 167 196 202 200 218 231 225 219 216 238 252 251 245 243 234 209 2 352 290 264 235 220 223 223 220 224 219 216 217 221 211 215 210 203 199 204 186 166 182 169 177 158 147 133 129 118 123 131 134 138 145 169 170 178 173 164 161 156 158 187 183 157 104 77 25 12 357 1 15 29 19 21
156 187 179 198 229 165 251 282 308 242 239 213 218 231 202 203 203 201 214 250 239 212 212 219 232 237 235 236 231 133 46 314 269 260 224 200 217 228 235 242 240 231 224 222 221 221 207 204 207 189 172 171 180 179 154 154 143 140 137 131 135 142 143 149 157 159 159 150 151 177 146 152 165 166 155 135 138 93 360 29 27 17 11 49 26 24
181 179 178 185 223 114 169 283 254 299 252 23 314 184 184 168 121 109 178 247 239 185 204 212 231 238 233 235 218 131 193 237 249 252 225 165 210 211 221 233 233 234 232 223 212 201 190 193 190 183 176 167 173 179 162 147 141 142 147 140 146 158 152 157 160 162 161 156 161 136 132 148 147 149 142 139 123 130 72 66 69 26 53 47 53 45
186 170 147 195 218 220 223 244 254 207 255 190 121 9 38 124 105 92 213 242 246 190 207 206 223 232 230 228 152 173 199 230 241 249 134 173 202 205 208 226 230 232 233 214 212 202 192 163 124 147 173 182 187 158 154 144 141 150 147 139 155 171 168 162 160 150 135 123 117 108 106 123 133 144 144 131 118 105 94 96 80 61 75 50 57 54
190 169 191 204 207 213 188 240 293 269 248 217 253 83 131 158 131 181 208 230 257 154 203 201 223 230 225 217 169 212 218 224 239 233 157 191 204 214 219 222 223 219 218 195 197 169 163 179 181 181 186 181 153 152 150 145 143 155 164 152 159 181 168 152 138 127 127 113 112 111 115 111 126 129 117 116 112 110 94 83 91 82 74 71 57 56
200 179 182 201 215 212 175 201 233 268 242 142 193 167 176 137 197 214 225 120 143 189 189 196 210 222 215 210 204 221 232 232 243 203 185 202 205 215 215 220 221 207 156 174 175 170 172 171 171 132 109 132 155 152 153 150 154 159 163 162 167 173 155 145 135 129 127 129 124 124 120 124 118 113 119 112 107 98 89 85 92 92 98 89 86 76
182 189 191 190 197 195 179 192 205 256 277 162 154 152 175 186 221 219 25 285 154 180 189 205 210 218 199 217 217 223 234 243 245 230 217 213 219 227 219 192 193 196 177 143 147 190 162 162 167 170 160 152 158 158 158 155 156 162 163 162 161 155 158 142 140 133 132 128 127 129 129 128 129 128 121 112 114 113 104 106 100 98 102 103 98 92
174 201 201 208 187 191 179 196 202 228 25 149 141 182 205 218 94 150 236 259 321 142 173 200 225 213 202 212 220 229 234 241 248 247 232 231 225 247 243 213 206 189 191 196 179 172 170 164 154 147 149 151 153 160 161 161 156 162 162 159 142 152 153 143 140 136 131 131 132 135 133 134 130 126 122 124 122 118 121 117 120 115 115 116 110 105
177 207 181 203 178 198 202 215 239 224 163 183 181 152 199 213 224 215 216 231 246 250 189 189 219 213 216 218 227 228 237 235 237 241 222 229 219 222 230 220 202 195 189 183 178 172 173 168 163 150 141 150 152 159 162 165 154 157 158 153 142 165 155 150 142 136 134 135 137 136 139 129 125 118 114 117 120 120 123 127 132 116 122 117 108 107
189 194 201 210 227 229 241 223 234 236 232 231 232 202 207 218 227 230 230 253 251 236 183 200 215 213 219 219 222 238 234 237 234 244 233 230 220 216 225 240 202 141 134 114 125 158 157 128 130 143 144 140 148 150 155 159 163 159 159 140 156 165 155 149 143 139 141 142 142 144 141 130 124 118 115 115 113 118 129 135 134 125 128 115 115 117
275 200 198 210 183 185 238 240 254 248 244 213 231 267 261 221 220 220 230 228 233 215 221 234 225 223 220 213 219 238 249 244 245 251 230 227 227 218 210 213 213 184 174 178 176 151 143 149 151 160 157 154 164 151 147 145 156 144 137 146 161 162 152 150 144 142 143 144 142 145 144 140 138 131 126 124 121 119 125 125 126 120 115 123 124 121
266 173 198 207 199 203 232 219 234 238 241 209 209 227 245 243 235 240 229 227 223 225 201 224 202 243 207 227 227 226 245 252 237 243 204 208 208 208 205 207 200 187 192 167 156 163 152 162 164 157 149 156 161 155 148 146 151 148 137 141 158 155 148 147 150 148 149 149 148 145 145 138 133 128 120 118 117 117 106 93 97 95 93 105 116 124
205 147 214 170 224 237 252 251 249 278 304 250 232 228 236 243 246 251 263 240 233 244 250 244 197 212 187 230 237 237 250 259 228 219 211 210 207 201 206 197 189 180 160 161 170 170 171 165 160 164 156 152 153 152 149 149 150 153 148 152 158 157 151 150 149 146 145 147 139 140 140 136 134 129 121 113 90 72 74 93 88 80 53 15 18 52
181 225 170 184 234 233 231 242 228 246 254 244 235 231 224 230 212 236 233 242 236 233 234 236 236 219 221 231 233 228 230 251 226 200 211 209 206 203 174 164 166 159 159 152 143 152 141 154 157 157 156 148 149 150 148 152 157 158 157 158 166 163 152 149 144 142 144 144 138 136 130 122 115 111 108 106 102 95 71 60 79 90 96 56 45 58
218 199 184 217 220 233 234 241 228 229 244 245 231 204 206 204 208 224 230 234 237 229 226 220 236 242 235 240 215 216 231 233 232 191 206 210 218 199 181 166 163 168 166 159 148 150 152 153 155 149 148 153 153 150 154 156 162 159 166 172 172 166 153 147 140 137 136 134 133 132 124 121 114 109 105 109 116 114 111 96 64 66 76 82 78 69